QPF
0.01 0.01 0.01 0.01 0.01 0.00 0.01 0.01 0.01 0.01 0.02 0.02 0.01 0.01 0.02 0.02 0.02 0.02 0.02 0.02 0.01 0.02 0.01 0.02 0.02 0.01 0.01 0.01 0.01 0.01 0.01 0.00 0.00 0.00 0.00 0.00 0.00 0.00 0.00 0.00 0.00 0.00 0.00 0.00
0.01 0.01 0.01 0.00 0.00 0.00 0.00 0.01 0.01 0.01 0.01 0.00 0.01 0.01 0.02 0.02 0.02 0.02 0.01 0.01 0.01 0.01 0.02 0.02 0.02 0.01 0.01 0.01 0.02 0.02 0.02 0.01 0.00 0.00 0.00 0.00 0.00 0.00 0.00 0.00 0.00 0.00 0.00 0.00
0.01 0.01 0.01 0.00 0.00 0.00 0.00 0.00 0.01 0.01 0.01 0.01 0.01 0.01 0.01 0.02 0.02 0.02 0.01 0.01 0.01 0.01 0.02 0.03 0.02 0.01 0.01 0.01 0.01 0.01 0.01 0.01 0.01 0.01 0.00 0.00 0.00 0.00 0.00 0.00 0.00 0.00 0.00 0.00
0.02 0.02 0.01 0.00 0.00 0.00 0.00 0.00 0.00 0.01 0.01 0.01 0.01 0.01 0.01 0.01 0.02 0.02 0.02 0.02 0.02 0.01 0.02 0.03 0.02 0.01 0.02 0.02 0.02 0.01 0.01 0.00 0.01 0.01 0.01 0.01 0.00 0.00 0.00 0.00 0.00 0.00 0.00 0.00
0.02 0.02 0.01 0.00 0.00 0.01 0.01 0.00 0.00 0.00 0.00 0.00 0.00 0.01 0.01 0.01 0.01 0.02 0.02 0.02 0.02 0.02 0.02 0.02 0.02 0.01 0.02 0.02 0.02 0.02 0.01 0.00 0.00 0.01 0.01 0.01 0.01 0.01 0.00 0.00 0.00 0.00 0.00 0.00
0.01 0.02 0.01 0.01 0.00 0.00 0.01 0.00 0.01 0.01 0.00 0.00 0.00 0.00 0.00 0.00 0.01 0.01 0.02 0.02 0.02 0.02 0.02 0.02 0.02 0.02 0.02 0.03 0.03 0.02 0.01 0.01 0.00 0.01 0.01 0.01 0.01 0.02 0.01 0.01 0.00 0.00 0.00 0.00
0.01 0.01 0.01 0.00 0.00 0.01 0.01 0.00 0.01 0.01 0.00 0.00 0.00 0.00 0.00 0.00 0.00 0.01 0.01 0.01 0.01 0.02 0.02 0.02 0.02 0.03 0.03 0.05 0.04 0.02 0.02 0.01 0.01 0.01 0.01 0.02 0.02 0.02 0.01 0.01 0.01 0.01 0.00 0.00
0.01 0.01 0.01 0.01 0.01 0.01 0.01 0.01 0.01 0.01 0.01 0.00 0.00 0.00 0.00 0.00 0.00 0.01 0.01 0.01 0.01 0.01 0.01 0.01 0.02 0.03 0.03 0.05 0.04 0.03 0.04 0.03 0.02 0.02 0.03 0.03 0.03 0.02 0.01 0.01 0.01 0.01 0.01 0.01
0.01 0.01 0.01 0.01 0.02 0.01 0.01 0.00 0.00 0.00 0.00 0.00 0.00 0.00 0.00 0.00 0.01 0.00 0.00 0.00 0.00 0.00 0.00 0.01 0.02 0.02 0.03 0.04 0.05 0.04 0.04 0.04 0.03 0.03 0.02 0.03 0.03 0.02 0.01 0.01 0.01 0.01 0.01 0.01
0.02 0.01 0.02 0.02 0.01 0.00 0.00 0.00 0.00 0.00 0.00 0.00 0.00 0.00 0.00 0.00 0.01 0.00 0.00 0.00 0.00 0.00 0.00 0.01 0.01 0.02 0.03 0.05 0.05 0.05 0.05 0.04 0.04 0.03 0.02 0.03 0.03 0.03 0.02 0.02 0.02 0.01 0.01 0.00
0.04 0.02 0.03 0.03 0.01 0.00 0.00 0.00 0.00 0.00 0.00 0.00 0.00 0.00 0.00 0.00 0.00 0.00 0.00 0.00 0.00 0.01 0.01 0.01 0.01 0.02 0.03 0.04 0.05 0.05 0.06 0.05 0.05 0.04 0.03 0.03 0.03 0.02 0.02 0.02 0.02 0.01 0.01 0.01
0.05 0.04 0.03 0.03 0.01 0.01 0.00 0.00 0.00 0.00 0.00 0.00 0.00 0.00 0.00 0.00 0.00 0.00 0.00 0.01 0.01 0.02 0.02 0.02 0.02 0.02 0.02 0.03 0.03 0.03 0.05 0.05 0.04 0.04 0.03 0.03 0.02 0.02 0.02 0.02 0.01 0.01 0.01 0.00
0.03 0.04 0.03 0.02 0.01 0.00 0.00 0.00 0.00 0.00 0.00 0.00 0.00 0.00 0.00 0.00 0.00 0.00 0.00 0.01 0.01 0.01 0.02 0.02 0.02 0.01 0.01 0.02 0.03 0.03 0.03 0.04 0.04 0.04 0.03 0.03 0.02 0.01 0.01 0.01 0.01 0.01 0.01 0.01
0.01 0.02 0.02 0.01 0.01 0.01 0.00 0.00 0.00 0.00 0.00 0.00 0.00 0.00 0.00 0.00 0.00 0.01 0.01 0.00 0.00 0.01 0.01 0.01 0.01 0.01 0.01 0.01 0.01 0.02 0.02 0.03 0.03 0.03 0.03 0.03 0.02 0.01 0.01 0.01 0.01 0.01 0.01 0.01
0.01 0.01 0.01 0.01 0.00 0.00 0.00 0.00 0.00 0.00 0.00 0.00 0.00 0.01 0.02 0.02 0.01 0.02 0.02 0.01 0.00 0.00 0.00 0.00 0.00 0.00 0.00 0.01 0.01 0.01 0.02 0.02 0.02 0.02 0.02 0.02 0.02 0.02 0.02 0.01 0.01 0.01 0.01 0.01
0.01 0.01 0.01 0.01 0.00 0.00 0.00 0.00 0.00 0.00 0.00 0.01 0.01 0.01 0.03 0.02 0.01 0.02 0.02 0.01 0.01 0.00 0.00 0.00 0.01 0.00 0.00 0.00 0.00 0.01 0.02 0.02 0.01 0.01 0.01 0.01 0.02 0.03 0.03 0.03 0.02 0.02 0.02 0.01
0.00 0.01 0.01 0.01 0.00 0.00 0.00 0.00 0.00 0.00 0.00 0.01 0.01 0.01 0.02 0.02 0.02 0.02 0.02 0.02 0.01 0.01 0.01 0.01 0.01 0.00 0.01 0.01 0.01 0.01 0.02 0.02 0.01 0.00 0.00 0.01 0.01 0.02 0.03 0.03 0.04 0.03 0.02 0.02
0.00 0.00 0.00 0.00 0.00 0.00 0.00 0.00 0.00 0.00 0.00 0.00 0.01 0.01 0.01 0.01 0.03 0.04 0.03 0.03 0.02 0.01 0.01 0.01 0.01 0.01 0.01 0.02 0.02 0.02 0.02 0.02 0.01 0.01 0.01 0.01 0.01 0.01 0.01 0.01 0.01 0.02 0.02 0.02
0.00 0.00 0.00 0.00 0.00 0.00 0.00 0.00 0.00 0.00 0.00 0.01 0.01 0.01 0.01 0.01 0.01 0.03 0.03 0.02 0.02 0.02 0.01 0.01 0.01 0.01 0.01 0.02 0.02 0.03 0.02 0.02 0.01 0.01 0.00 0.00 0.00 0.00 0.00 0.00 0.01 0.01 0.02 0.02
0.00 0.00 0.00 0.00 0.00 0.00 0.00 0.00 0.00 0.00 0.00 0.00 0.01 0.01 0.00 0.00 0.01 0.01 0.01 0.01 0.01 0.01 0.01 0.01 0.01 0.01 0.01 0.01 0.01 0.02 0.02 0.01 0.01 0.01 0.01 0.01 0.01 0.01 0.01 0.01 0.01 0.01 0.01 0.01
0.00 0.00 0.00 0.00 0.00 0.00 0.00 0.00 0.00 0.00 0.00 0.00 0.00 0.00 0.00 0.00 0.00 0.01 0.01 0.00 0.01 0.01 0.01 0.01 0.01 0.01 0.01 0.01 0.01 0.01 0.01 0.01 0.01 0.01 0.01 0.01 0.01 0.01 0.01 0.01 0.01 0.00 0.00 0.00
0.01 0.01 0.01 0.01 0.00 0.00 0.00 0.00 0.00 0.00 0.00 0.00 0.00 0.00 0.00 0.00 0.00 0.00 0.00 0.00 0.00 0.00 0.00 0.00 0.00 0.00 0.00 0.01 0.01 0.01 0.01 0.01 0.01 0.01 0.01 0.00 0.00 0.00 0.01 0.01 0.01 0.01 0.01 0.01
0.01 0.01 0.01 0.01 0.00 0.00 0.00 0.00 0.00 0.00 0.01 0.01 0.00 0.00 0.00 0.00 0.00 0.00 0.00 0.00 0.00 0.00 0.00 0.00 0.01 0.01 0.01 0.01 0.00 0.00 0.00 0.00 0.00 0.00 0.00 0.00 0.00 0.00 0.00 0.01 0.02 0.02 0.02 0.02
0.01 0.01 0.01 0.01 0.01 0.01 0.00 0.00 0.00 0.00 0.01 0.01 0.01 0.01 0.00 0.00 0.00 0.00 0.00 0.00 0.00 0.00 0.00 0.00 0.00 0.01 0.01 0.00 0.00 0.00 0.00 0.00 0.00 0.00 0.00 0.00 0.00 0.00 0.00 0.00 0.00 0.00 0.00 0.01
0.01 0.01 0.01 0.01 0.01 0.01 0.01 0.01 0.00 0.00 0.00 0.01 0.01 0.01 0.01 0.00 0.00 0.00 0.00 0.00 0.00 0.00 0.00 0.00 0.00 0.00 0.00 0.00 0.00 0.00 0.00 0.00 0.00 0.00 0.00 0.00 0.00 0.00 0.00 0.00 0.00 0.00 0.00 0.00
0.02 0.02 0.01 0.01 0.01 0.01 0.01 0.01 0.00 0.00 0.00 0.00 0.00 0.00 0.01 0.01 0.00 0.01 0.01 0.01 0.00 0.00 0.00 0.00 0.00 0.00 0.00 0.00 0.00 0.00 0.00 0.00 0.00 0.00 0.00 0.00 0.00 0.00 0.00 0.00 0.00 0.00 0.00 0.00
0.02 0.02 0.03 0.02 0.02 0.02 0.02 0.01 0.01 0.00 0.00 0.00 0.00 0.00 0.00 0.00 0.00 0.00 0.00 0.00 0.00 0.00 0.00 0.00 0.00 0.00 0.00 0.00 0.00 0.00 0.00 0.00 0.00 0.00 0.00 0.00 0.00 0.00 0.00 0.00 0.00 0.00 0.00 0.00
MSLP
1017.95 1018.30 1018.57 1018.73 1018.75 1018.60 1018.28 1017.78 1017.14 1016.39 1015.60 1014.82 1014.11 1013.53 1013.12 1012.87 1012.79 1012.86 1013.02 1013.27 1013.55 1013.85 1014.16 1014.48 1014.84 1015.22 1015.66 1016.14 1016.66 1017.20 1017.73 1018.21 1018.64 1018.99 1019.26 1019.46 1019.61 1019.73 1019.86 1020.00 1020.15 1020.34 1020.53 1020.73
1017.85 1018.09 1018.22 1018.21 1018.04 1017.72 1017.25 1016.65 1015.96 1015.23 1014.50 1013.82 1013.24 1012.79 1012.48 1012.32 1012.29 1012.37 1012.53 1012.76 1013.02 1013.32 1013.65 1014.02 1014.43 1014.90 1015.41 1015.97 1016.54 1017.11 1017.65 1018.14 1018.56 1018.89 1019.16 1019.37 1019.54 1019.69 1019.85 1020.03 1020.22 1020.43 1020.65 1020.86
1017.79 1017.91 1017.89 1017.72 1017.39 1016.91 1016.31 1015.62 1014.89 1014.16 1013.48 1012.88 1012.39 1012.03 1011.79 1011.68 1011.67 1011.75 1011.91 1012.11 1012.37 1012.68 1013.05 1013.47 1013.96 1014.50 1015.09 1015.72 1016.35 1016.95 1017.51 1017.99 1018.40 1018.73 1019.00 1019.22 1019.41 1019.60 1019.79 1020.01 1020.24 1020.48 1020.71 1020.92
1017.75 1017.75 1017.59 1017.28 1016.81 1016.20 1015.50 1014.75 1013.99 1013.26 1012.60 1012.05 1011.61 1011.30 1011.10 1011.01 1011.01 1011.09 1011.22 1011.42 1011.68 1012.01 1012.42 1012.90 1013.45 1014.07 1014.73 1015.41 1016.08 1016.70 1017.27 1017.75 1018.15 1018.48 1018.75 1018.99 1019.21 1019.43 1019.67 1019.92 1020.19 1020.44 1020.68 1020.89
1017.70 1017.58 1017.30 1016.86 1016.28 1015.59 1014.82 1014.02 1013.24 1012.51 1011.88 1011.35 1010.95 1010.67 1010.49 1010.40 1010.40 1010.46 1010.58 1010.78 1011.04 1011.39 1011.83 1012.35 1012.96 1013.62 1014.33 1015.04 1015.73 1016.37 1016.93 1017.40 1017.80 1018.13 1018.41 1018.67 1018.92 1019.18 1019.46 1019.76 1020.05 1020.32 1020.57 1020.76
1017.59 1017.35 1016.96 1016.43 1015.77 1015.02 1014.22 1013.41 1012.63 1011.92 1011.31 1010.81 1010.43 1010.17 1010.00 1009.91 1009.89 1009.95 1010.06 1010.25 1010.52 1010.88 1011.34 1011.88 1012.51 1013.20 1013.92 1014.63 1015.31 1015.93 1016.48 1016.94 1017.33 1017.67 1017.97 1018.25 1018.54 1018.85 1019.17 1019.50 1019.82 1020.11 1020.36 1020.56
1017.39 1017.03 1016.55 1015.95 1015.25 1014.48 1013.68 1012.88 1012.13 1011.46 1010.88 1010.42 1010.07 1009.82 1009.66 1009.58 1009.56 1009.61 1009.72 1009.90 1010.17 1010.52 1010.97 1011.51 1012.13 1012.80 1013.49 1014.18 1014.83 1015.42 1015.94 1016.39 1016.77 1017.11 1017.43 1017.75 1018.08 1018.43 1018.79 1019.15 1019.49 1019.80 1020.06 1020.26
1017.07 1016.62 1016.06 1015.42 1014.71 1013.96 1013.18 1012.43 1011.74 1011.12 1010.59 1010.17 1009.86 1009.64 1009.50 1009.43 1009.41 1009.46 1009.57 1009.74 1009.99 1010.33 1010.75 1011.26 1011.82 1012.44 1013.08 1013.71 1014.30 1014.84 1015.33 1015.76 1016.14 1016.50 1016.85 1017.20 1017.56 1017.95 1018.34 1018.72 1019.09 1019.41 1019.68 1019.88
1016.66 1016.13 1015.53 1014.88 1014.19 1013.48 1012.76 1012.08 1011.45 1010.90 1010.44 1010.07 1009.80 1009.61 1009.50 1009.45 1009.45 1009.50 1009.61 1009.77 1010.00 1010.30 1010.67 1011.11 1011.60 1012.14 1012.69 1013.24 1013.77 1014.26 1014.71 1015.12 1015.51 1015.88 1016.25 1016.63 1017.02 1017.43 1017.84 1018.24 1018.61 1018.94 1019.21 1019.42
1016.19 1015.62 1015.01 1014.38 1013.73 1013.08 1012.45 1011.85 1011.30 1010.82 1010.42 1010.11 1009.89 1009.74 1009.65 1009.62 1009.64 1009.70 1009.81 1009.95 1010.15 1010.41 1010.71 1011.07 1011.48 1011.91 1012.37 1012.83 1013.28 1013.71 1014.13 1014.53 1014.91 1015.30 1015.69 1016.09 1016.50 1016.92 1017.34 1017.73 1018.09 1018.41 1018.67 1018.89
1015.72 1015.14 1014.56 1013.97 1013.39 1012.82 1012.26 1011.75 1011.27 1010.87 1010.53 1010.26 1010.08 1009.96 1009.91 1009.90 1009.94 1010.02 1010.12 1010.26 1010.43 1010.63 1010.87 1011.15 1011.46 1011.79 1012.15 1012.52 1012.90 1013.28 1013.66 1014.04 1014.43 1014.82 1015.22 1015.63 1016.05 1016.46 1016.86 1017.22 1017.56 1017.85 1018.09 1018.30
1015.29 1014.74 1014.21 1013.69 1013.18 1012.69 1012.22 1011.78 1011.37 1011.02 1010.72 1010.49 1010.34 1010.25 1010.22 1010.24 1010.30 1010.39 1010.51 1010.64 1010.79 1010.95 1011.14 1011.34 1011.56 1011.81 1012.08 1012.37 1012.68 1013.01 1013.35 1013.72 1014.10 1014.49 1014.89 1015.29 1015.69 1016.08 1016.43 1016.76 1017.05 1017.30 1017.52 1017.71
1014.91 1014.42 1013.96 1013.52 1013.10 1012.68 1012.28 1011.90 1011.54 1011.22 1010.94 1010.74 1010.60 1010.53 1010.52 1010.57 1010.66 1010.78 1010.91 1011.06 1011.20 1011.35 1011.49 1011.64 1011.79 1011.97 1012.16 1012.38 1012.63 1012.91 1013.23 1013.57 1013.94 1014.32 1014.70 1015.09 1015.45 1015.79 1016.10 1016.37 1016.61 1016.82 1017.00 1017.19
1014.57 1014.16 1013.78 1013.42 1013.08 1012.73 1012.38 1012.04 1011.70 1011.40 1011.13 1010.93 1010.80 1010.74 1010.76 1010.84 1010.97 1011.13 1011.31 1011.48 1011.64 1011.79 1011.92 1012.03 1012.14 1012.25 1012.39 1012.55 1012.75 1012.99 1013.28 1013.59 1013.94 1014.30 1014.66 1015.01 1015.34 1015.63 1015.89 1016.11 1016.30 1016.47 1016.63 1016.80
1014.25 1013.92 1013.62 1013.35 1013.06 1012.77 1012.45 1012.12 1011.80 1011.49 1011.22 1011.02 1010.89 1010.86 1010.90 1011.02 1011.20 1011.42 1011.65 1011.88 1012.08 1012.25 1012.38 1012.49 1012.57 1012.65 1012.74 1012.86 1013.01 1013.21 1013.46 1013.75 1014.07 1014.40 1014.74 1015.06 1015.35 1015.60 1015.82 1016.00 1016.16 1016.31 1016.47 1016.65
1013.92 1013.67 1013.44 1013.23 1012.99 1012.72 1012.42 1012.09 1011.76 1011.44 1011.17 1010.96 1010.85 1010.84 1010.93 1011.10 1011.35 1011.64 1011.95 1012.24 1012.50 1012.71 1012.86 1012.97 1013.05 1013.10 1013.16 1013.24 1013.35 1013.52 1013.73 1013.99 1014.29 1014.60 1014.91 1015.21 1015.48 1015.72 1015.92 1016.09 1016.24 1016.40 1016.57 1016.78
1013.59 1013.40 1013.23 1013.04 1012.83 1012.57 1012.27 1011.93 1011.58 1011.25 1010.97 1010.77 1010.68 1010.70 1010.84 1011.09 1011.41 1011.78 1012.17 1012.54 1012.87 1013.13 1013.32 1013.44 1013.52 1013.56 1013.59 1013.64 1013.73 1013.86 1014.05 1014.29 1014.57 1014.87 1015.18 1015.47 1015.74 1015.99 1016.20 1016.38 1016.57 1016.75 1016.97 1017.22
1013.30 1013.15 1013.00 1012.83 1012.61 1012.34 1012.02 1011.66 1011.29 1010.95 1010.67 1010.48 1010.42 1010.49 1010.69 1011.01 1011.42 1011.88 1012.35 1012.80 1013.19 1013.50 1013.73 1013.88 1013.96 1013.99 1014.01 1014.04 1014.10 1014.22 1014.39 1014.62 1014.90 1015.20 1015.52 1015.84 1016.14 1016.41 1016.67 1016.90 1017.13 1017.37 1017.65 1017.97
1013.13 1012.98 1012.82 1012.64 1012.40 1012.10 1011.75 1011.36 1010.98 1010.63 1010.35 1010.19 1010.16 1010.28 1010.54 1010.93 1011.41 1011.95 1012.49 1013.01 1013.46 1013.82 1014.08 1014.25 1014.34 1014.38 1014.39 1014.42 1014.47 1014.58 1014.76 1015.00 1015.29 1015.62 1015.98 1016.34 1016.69 1017.02 1017.33 1017.63 1017.93 1018.24 1018.57 1018.95
1013.14 1012.97 1012.79 1012.57 1012.29 1011.95 1011.56 1011.15 1010.74 1010.39 1010.12 1009.97 1009.98 1010.14 1010.46 1010.91 1011.45 1012.04 1012.65 1013.21 1013.70 1014.10 1014.39 1014.58 1014.68 1014.73 1014.76 1014.79 1014.86 1014.98 1015.18 1015.44 1015.77 1016.15 1016.56 1016.97 1017.39 1017.79 1018.17 1018.53 1018.90 1019.27 1019.67 1020.09
1013.39 1013.19 1012.96 1012.69 1012.37 1011.98 1011.55 1011.11 1010.69 1010.33 1010.07 1009.94 1009.97 1010.17 1010.52 1011.00 1011.58 1012.21 1012.84 1013.43 1013.95 1014.37 1014.68 1014.89 1015.02 1015.09 1015.14 1015.19 1015.29 1015.46 1015.69 1016.00 1016.38 1016.81 1017.28 1017.76 1018.24 1018.70 1019.14 1019.57 1019.99 1020.40 1020.83 1021.29
1013.87 1013.63 1013.36 1013.05 1012.67 1012.24 1011.78 1011.31 1010.87 1010.51 1010.25 1010.14 1010.18 1010.40 1010.76 1011.26 1011.84 1012.48 1013.11 1013.71 1014.24 1014.67 1015.00 1015.23 1015.38 1015.49 1015.58 1015.68 1015.83 1016.05 1016.33 1016.70 1017.14 1017.62 1018.14 1018.68 1019.21 1019.72 1020.21 1020.67 1021.12 1021.55 1021.99 1022.45
1014.54 1014.27 1013.96 1013.60 1013.19 1012.73 1012.24 1011.76 1011.31 1010.95 1010.69 1010.58 1010.63 1010.84 1011.20 1011.68 1012.25 1012.87 1013.49 1014.08 1014.60 1015.03 1015.37 1015.63 1015.82 1015.98 1016.12 1016.28 1016.49 1016.77 1017.12 1017.54 1018.03 1018.56 1019.12 1019.69 1020.26 1020.79 1021.30 1021.78 1022.22 1022.65 1023.08 1023.50
1015.29 1015.00 1014.67 1014.29 1013.85 1013.38 1012.88 1012.40 1011.96 1011.60 1011.35 1011.24 1011.29 1011.48 1011.82 1012.28 1012.81 1013.39 1013.98 1014.54 1015.05 1015.48 1015.84 1016.13 1016.37 1016.58 1016.78 1017.01 1017.29 1017.62 1018.03 1018.50 1019.02 1019.58 1020.17 1020.75 1021.32 1021.85 1022.35 1022.82 1023.25 1023.65 1024.04 1024.42
1015.97 1015.69 1015.36 1014.98 1014.55 1014.09 1013.61 1013.15 1012.73 1012.39 1012.16 1012.05 1012.09 1012.27 1012.58 1013.00 1013.50 1014.04 1014.59 1015.12 1015.61 1016.05 1016.42 1016.74 1017.03 1017.29 1017.56 1017.85 1018.19 1018.58 1019.02 1019.52 1020.06 1020.63 1021.21 1021.78 1022.33 1022.84 1023.32 1023.75 1024.15 1024.52 1024.87 1025.21
1016.45 1016.19 1015.89 1015.55 1015.15 1014.73 1014.30 1013.88 1013.50 1013.21 1013.01 1012.92 1012.97 1013.14 1013.43 1013.82 1014.27 1014.77 1015.29 1015.79 1016.27 1016.71 1017.10 1017.46 1017.79 1018.11 1018.44 1018.78 1019.16 1019.59 1020.06 1020.56 1021.10 1021.65 1022.20 1022.74 1023.24 1023.72 1024.15 1024.55 1024.91 1025.25 1025.57 1025.87
1016.62 1016.42 1016.17 1015.88 1015.55 1015.19 1014.83 1014.49 1014.19 1013.95 1013.81 1013.77 1013.84 1014.02 1014.30 1014.67 1015.10 1015.57 1016.06 1016.55 1017.02 1017.47 1017.88 1018.27 1018.64 1019.00 1019.37 1019.76 1020.17 1020.61 1021.07 1021.56 1022.07 1022.58 1023.09 1023.57 1024.03 1024.46 1024.85 1025.22 1025.55 1025.87 1026.17 1026.45
Thickness
5679 5687 5688 5688 5689 5688 5680 5675 5668 5676 5683 5697 5706 5710 5714 5717 5716 5715 5714 5714 5714 5713 5713 5713 5712 5713 5713 5712 5711 5711 5708 5706 5706 5706 5705 5705 5704 5704 5704 5704 5704 5702 5701 5700
5676 5686 5687 5686 5691 5691 5688 5687 5684 5686 5690 5707 5713 5713 5712 5713 5714 5713 5714 5715 5716 5716 5715 5714 5714 5713 5713 5712 5711 5710 5707 5705 5705 5704 5703 5702 5702 5701 5700 5700 5700 5699 5698 5697
5660 5675 5678 5673 5689 5692 5692 5696 5693 5687 5697 5708 5708 5709 5712 5714 5714 5714 5716 5717 5717 5718 5718 5718 5717 5716 5714 5713 5711 5708 5706 5704 5703 5702 5700 5700 5700 5698 5697 5696 5696 5695 5694 5694
5654 5661 5653 5681 5703 5704 5698 5701 5705 5705 5708 5710 5712 5714 5717 5719 5718 5716 5717 5718 5719 5720 5719 5719 5719 5717 5715 5712 5710 5707 5704 5703 5702 5700 5698 5697 5696 5695 5694 5694 5693 5691 5690 5690
5646 5647 5659 5684 5700 5701 5694 5696 5709 5707 5709 5712 5715 5712 5711 5720 5723 5722 5722 5721 5722 5723 5722 5720 5718 5717 5713 5710 5708 5705 5703 5702 5701 5700 5697 5695 5694 5692 5692 5691 5690 5689 5688 5687
5644 5645 5648 5678 5702 5709 5701 5688 5710 5711 5710 5711 5710 5695 5703 5719 5722 5723 5723 5722 5722 5722 5721 5718 5717 5716 5711 5707 5705 5703 5703 5703 5701 5699 5697 5695 5693 5691 5690 5689 5687 5686 5684 5683
5643 5644 5659 5688 5701 5702 5677 5684 5709 5713 5714 5713 5708 5708 5715 5720 5721 5722 5721 5721 5721 5719 5717 5716 5715 5713 5708 5705 5704 5705 5704 5702 5700 5698 5696 5694 5691 5689 5687 5685 5683 5681 5680 5679
5641 5641 5656 5693 5694 5688 5690 5704 5709 5711 5714 5713 5713 5715 5716 5717 5717 5718 5717 5717 5717 5715 5713 5713 5713 5710 5705 5703 5705 5704 5701 5699 5697 5695 5694 5692 5688 5685 5684 5681 5678 5676 5675 5674
5653 5661 5681 5691 5695 5700 5703 5703 5707 5709 5713 5714 5712 5711 5713 5713 5713 5714 5714 5714 5714 5712 5709 5709 5710 5709 5704 5704 5703 5701 5698 5694 5693 5691 5690 5689 5686 5682 5679 5677 5674 5672 5670 5669
5655 5667 5680 5687 5694 5699 5703 5704 5708 5711 5712 5713 5709 5708 5708 5708 5708 5708 5709 5709 5709 5708 5705 5704 5705 5706 5704 5703 5701 5697 5693 5690 5689 5687 5685 5683 5682 5679 5676 5673 5671 5669 5667 5665
5650 5663 5673 5681 5688 5694 5699 5702 5704 5706 5709 5709 5708 5705 5704 5703 5703 5704 5704 5704 5705 5704 5702 5701 5701 5701 5701 5700 5698 5693 5689 5687 5684 5682 5680 5677 5676 5674 5673 5672 5671 5668 5666 5664
5647 5660 5663 5671 5683 5691 5693 5695 5698 5700 5700 5703 5704 5702 5701 5699 5699 5699 5699 5699 5698 5698 5698 5697 5697 5696 5696 5697 5695 5690 5685 5682 5680 5677 5675 5672 5670 5667 5667 5667 5667 5666 5665 5662
5658 5664 5667 5674 5680 5687 5689 5692 5695 5696 5696 5696 5697 5698 5697 5695 5695 5695 5694 5694 5693 5693 5693 5693 5692 5691 5691 5692 5690 5687 5683 5680 5677 5674 5671 5668 5666 5663 5659 5658 5659 5658 5657 5656
5659 5661 5661 5669 5674 5681 5685 5688 5690 5690 5691 5692 5692 5691 5691 5690 5690 5689 5689 5689 5690 5689 5688 5688 5687 5686 5687 5687 5686 5683 5680 5677 5674 5670 5668 5665 5662 5660 5657 5654 5650 5648 5649 5649
5655 5659 5661 5666 5670 5674 5678 5681 5680 5680 5682 5683 5685 5685 5684 5683 5683 5683 5684 5685 5685 5684 5683 5683 5682 5680 5682 5681 5679 5676 5674 5670 5668 5666 5663 5660 5657 5654 5651 5648 5645 5642 5640 5639
5648 5653 5656 5659 5661 5665 5669 5672 5672 5672 5675 5677 5677 5678 5678 5679 5678 5678 5678 5679 5678 5677 5677 5677 5676 5676 5676 5675 5673 5670 5667 5666 5663 5660 5656 5653 5650 5647 5643 5640 5637 5634 5632 5630
5639 5641 5645 5648 5653 5657 5661 5664 5666 5667 5669 5670 5671 5671 5672 5671 5670 5669 5670 5671 5672 5672 5672 5672 5670 5670 5670 5669 5666 5663 5660 5658 5656 5653 5649 5646 5643 5640 5637 5633 5630 5626 5624 5623
5640 5643 5645 5646 5649 5651 5654 5657 5659 5661 5662 5664 5664 5664 5663 5662 5661 5661 5662 5663 5663 5662 5662 5663 5664 5664 5663 5661 5660 5656 5653 5650 5647 5644 5641 5638 5635 5632 5629 5625 5622 5618 5614 5612
5633 5636 5638 5641 5644 5647 5648 5650 5651 5653 5655 5657 5656 5655 5655 5654 5654 5654 5654 5654 5653 5651 5652 5655 5656 5655 5654 5653 5651 5648 5645 5642 5638 5635 5632 5629 5626 5623 5619 5616 5613 5609 5606 5602
5625 5629 5632 5634 5637 5639 5641 5643 5645 5646 5647 5648 5648 5646 5644 5644 5645 5645 5644 5642 5642 5644 5645 5646 5646 5645 5644 5643 5642 5639 5636 5633 5629 5626 5623 5619 5616 5612 5610 5607 5603 5600 5596 5593
5616 5620 5623 5625 5627 5630 5633 5635 5637 5637 5638 5639 5639 5638 5636 5635 5635 5635 5634 5631 5631 5635 5637 5637 5636 5635 5635 5634 5632 5629 5626 5623 5619 5616 5612 5609 5606 5602 5599 5596 5593 5589 5586 5582
5606 5610 5613 5615 5618 5620 5623 5626 5628 5629 5629 5629 5629 5628 5627 5624 5624 5623 5623 5622 5623 5625 5626 5625 5625 5625 5625 5623 5621 5618 5615 5612 5608 5605 5601 5598 5595 5592 5588 5585 5581 5577 5574 5570
5597 5600 5603 5606 5609 5611 5613 5615 5618 5619 5619 5619 5619 5618 5618 5616 5616 5615 5611 5612 5614 5616 5616 5615 5615 5614 5614 5611 5609 5606 5603 5600 5597 5594 5591 5588 5584 5581 5577 5573 5569 5566 5561 5557
5588 5591 5594 5597 5599 5601 5601 5603 5606 5608 5608 5607 5607 5608 5608 5606 5603 5603 5604 5604 5605 5606 5605 5604 5604 5603 5601 5598 5596 5593 5591 5588 5585 5582 5579 5576 5572 5568 5565 5560 5556 5553 5549 5545
5578 5581 5583 5586 5588 5589 5590 5592 5592 5594 5595 5594 5594 5595 5596 5596 5594 5593 5593 5594 5594 5594 5592 5592 5592 5590 5588 5585 5583 5580 5578 5575 5572 5569 5566 5563 5559 5555 5551 5548 5544 5540 5535 5531
5567 5569 5573 5576 5578 5580 5580 5581 5581 5582 5583 5582 5581 5582 5582 5582 5582 5582 5582 5581 5581 5581 5579 5578 5577 5576 5574 5571 5569 5567 5564 5561 5559 5556 5552 5549 5545 5542 5538 5534 5530 5526 5522 5518
5555 5558 5561 5562 5564 5567 5569 5570 5570 5571 5572 5573 5570 5570 5570 5570 5570 5569 5569 5568 5567 5567 5566 5565 5564 5562 5560 5558 5555 5553 5550 5547 5545 5542 5539 5535 5532 5528 5524 5521 5516 5512 5508 5504